Probability
32 30 30 28 24 23 23 21 20 18 12 7 6 5 5 4 4 6 10 12 14 15 14 12 10 8 7 8 10 12 12 10 7 5 5 4 3 2 3 3 3 3 3
31 30 29 28 25 25 27 26 24 21 16 11 8 8 7 7 6 7 9 12 14 17 17 15 13 11 9 10 11 11 12 10 7 5 4 4 3 2 3 3 3 3 3
27 28 28 28 28 29 31 33 30 26 20 15 13 13 12 11 9 8 8 11 14 17 17 16 14 13 13 13 12 11 11 10 9 7 6 4 4 3 3 3 3 2 1
27 30 31 31 32 32 32 33 33 30 25 20 18 16 16 15 11 8 8 11 14 15 15 14 13 13 15 15 14 12 12 12 11 10 9 6 5 5 4 3 2 1 0
28 32 34 34 34 33 31 31 33 32 28 24 19 16 16 16 12 7 6 9 11 12 12 12 13 13 15 16 15 14 13 12 11 10 10 8 6 5 4 3 2 1 0
25 28 31 32 33 34 33 33 33 31 29 25 18 14 14 13 11 9 7 7 9 9 9 10 11 11 12 14 15 13 11 10 9 9 9 9 7 3 2 3 2 1 1
21 23 25 28 30 34 35 34 34 31 28 24 19 14 11 10 10 11 9 7 7 6 6 6 6 7 9 12 12 9 7 6 7 7 6 6 5 2 1 2 2 1 0
18 18 20 23 26 30 32 32 31 29 26 23 19 15 10 9 10 9 8 7 7 6 5 4 4 5 9 11 9 6 4 3 5 6 4 3 2 1 1 1 1 0 0
14 15 16 18 21 24 25 25 25 23 20 18 17 16 13 11 12 10 8 7 7 7 5 4 3 5 8 10 8 4 3 3 4 4 3 3 2 1 1 2 2 1 1
13 13 14 14 15 16 16 16 17 17 14 12 13 14 12 10 10 9 8 6 6 5 5 3 3 5 7 7 5 2 1 2 2 2 3 4 3 2 2 2 2 2 2
12 12 12 11 10 9 7 7 9 12 11 9 9 9 8 7 7 6 5 3 3 3 3 2 3 4 5 4 2 1 0 1 1 1 2 3 2 1 1 1 1 2 3
10 10 10 10 9 6 4 3 6 8 9 8 7 6 5 5 6 5 3 1 1 1 1 1 1 2 3 2 2 1 0 0 0 0 1 1 1 0 0 1 1 2 2
8 8 8 9 8 5 2 2 4 6 6 6 6 6 6 6 6 5 3 1 0 0 0 0 0 0 1 2 2 1 0 0 0 0 0 0 0 0 0 0 1 1 1
6 6 6 6 6 4 2 1 2 3 3 3 3 4 4 4 3 3 2 1 0 0 0 0 0 0 2 3 2 2 1 0 0 0 0 0 0 0 0 0 0 0 0
5 5 4 4 4 3 3 2 1 1 1 1 1 1 1 1 0 1 1 0 0 0 0 0 0 1 3 3 2 2 2 1 0 0 0 0 0 0 0 0 0 0 0
4 4 3 3 3 3 3 3 2 1 0 0 0 0 0 0 0 0 0 0 0 0 0 0 1 2 4 4 3 4 4 2 1 0 0 0 0 0 0 0 0 0 0
2 1 1 1 2 2 2 2 2 1 0 0 0 0 0 0 0 0 0 0 0 0 0 1 2 3 3 4 4 5 4 2 2 1 0 0 0 0 0 0 0 0 0
0 0 0 0 1 1 1 1 1 1 0 0 0 0 1 1 0 0 0 0 0 1 1 2 3 3 3 3 4 4 3 2 2 1 0 0 0 0 0 0 0 0 0
0 0 0 0 0 0 0 0 0 0 0 0 0 1 2 2 1 1 1 0 0 1 2 3 3 3 3 3 3 3 3 3 2 1 0 0 0 0 0 0 0 0 0
1 1 1 1 0 0 0 1 1 0 1 1 0 1 2 2 1 1 0 0 0 1 2 3 3 3 3 3 3 3 3 3 3 1 1 1 1 1 1 0 0 0 0
2 2 2 2 1 0 0 1 1 1 2 2 1 0 1 1 1 0 0 0 0 0 1 2 2 2 2 2 2 1 1 3 3 3 2 2 2 2 2 1 0 0 0
3 3 3 3 2 1 0 1 1 2 3 3 2 0 0 0 0 0 0 0 0 0 0 1 1 1 1 1 1 1 1 3 3 3 3 3 3 3 3 2 1 0 0
3 3 3 3 2 1 0 0 1 2 3 3 1 0 0 0 0 0 0 0 0 0 0 0 0 0 0 1 1 2 3 3 3 3 3 3 3 3 3 2 1 0 0
2 2 3 3 2 1 0 0 1 2 3 2 1 0 0 0 0 0 0 0 0 0 0 0 1 0 0 1 2 2 3 3 3 3 2 2 3 3 3 3 1 0 0
1 1 1 2 2 1 0 0 1 2 2 1 0 0 0 0 0 0 0 0 0 0 0 0 0 0 0 1 1 2 3 3 3 3 2 2 3 3 3 3 2 1 0
0 0 0 1 1 0 0 0 0 1 1 0 0 0 0 0 0 0 0 0 0 0 0 0 0 0 0 0 1 2 3 3 3 3 3 3 3 3 3 3 3 2 1
Wind_Speed
3 2 2 2 4 3 3 4 4 4 5 5 5 5 5 4 4 3 3 8 7 6 5 6 6 6 6 6 6 6 7 7 7 7 6 6 6 5 5 5 4 4 4
1 2 3 3 3 3 3 3 4 4 4 4 5 4 5 4 4 3 2 6 7 6 5 6 6 6 7 7 7 7 7 7 7 7 7 6 6 5 5 5 4 4 4
1 2 2 3 3 3 3 3 4 4 4 4 4 4 4 4 3 3 3 2 4 6 7 6 6 7 7 8 8 8 8 8 7 7 7 7 6 5 5 5 5 5 5
2 3 3 3 2 3 3 3 3 3 3 3 3 3 2 3 3 3 2 2 2 2 6 7 7 7 8 8 8 8 8 8 7 7 7 7 7 6 6 5 5 5 5
2 2 2 2 2 2 3 3 3 3 3 3 2 2 2 2 2 2 2 2 2 2 2 7 8 8 8 8 8 8 8 8 7 7 7 7 7 7 6 6 6 6 5
2 3 3 2 3 2 2 3 3 3 3 2 2 1 1 1 1 1 2 1 1 2 3 3 4 6 8 7 7 7 7 7 7 7 7 7 7 7 7 6 6 6 6
2 3 3 2 3 3 3 3 3 3 2 2 2 1 1 1 1 0 0 1 2 3 3 3 2 3 5 8 6 7 7 7 7 7 7 7 6 6 6 7 6 6 6
3 2 3 2 3 3 3 3 2 2 2 2 2 2 2 2 1 0 1 1 2 2 3 3 3 2 3 3 6 6 6 6 6 6 6 6 6 6 6 6 6 6 5
3 3 3 3 2 2 1 2 2 2 2 2 2 2 2 3 2 2 1 2 2 2 2 3 3 3 3 3 4 6 6 6 6 5 6 5 6 6 6 6 5 5 4
3 3 4 3 3 2 2 2 1 2 2 2 2 2 2 1 3 3 2 2 2 2 2 2 3 3 3 3 5 7 7 6 6 5 5 6 6 6 6 6 6 5 5
3 4 4 3 3 2 2 2 2 1 2 2 2 1 1 1 2 2 3 3 2 2 2 2 2 2 2 3 4 7 8 7 6 6 6 6 7 6 6 6 6 5 5
3 4 4 4 3 3 2 2 2 1 1 2 2 2 2 2 2 2 3 4 3 2 2 2 2 2 2 2 5 8 7 7 6 6 6 6 6 5 5 5 5 6 6
3 5 5 4 3 3 3 3 2 2 2 1 1 1 1 1 1 1 3 4 3 3 2 1 1 1 2 2 4 7 7 7 6 6 6 6 6 5 5 6 6 6 6
4 5 4 4 4 4 3 3 2 2 2 1 1 1 0 1 1 2 2 4 4 3 2 2 2 2 2 3 5 3 6 8 7 6 6 5 5 5 5 5 5 5 5
3 4 4 4 4 4 3 3 3 4 3 3 3 2 1 1 1 1 2 3 3 4 3 3 3 3 2 3 3 2 4 8 6 6 5 5 5 5 4 4 3 3 3
4 4 5 5 5 4 4 3 4 5 4 4 3 3 3 2 2 2 2 1 1 2 4 4 3 4 3 3 4 2 3 8 7 6 5 5 5 5 4 4 3 3 2
5 5 5 5 6 5 5 4 5 5 5 5 4 4 4 4 3 2 2 2 1 2 4 4 4 5 4 3 3 2 3 4 6 7 6 5 5 5 5 4 4 4 3
5 5 5 6 6 6 6 6 5 5 5 5 5 5 5 4 4 3 2 3 3 3 4 6 5 5 5 4 3 2 2 3 4 9 7 6 6 6 6 5 5 4 4
6 6 6 7 7 6 6 6 6 6 6 5 5 5 5 5 5 4 4 4 3 4 4 5 5 3 3 3 3 3 3 2 3 8 8 8 8 7 6 6 6 5 5
6 7 7 7 7 7 7 7 6 6 6 6 6 6 6 6 5 4 4 4 4 4 5 4 4 4 3 4 3 3 3 3 2 3 4 5 8 9 9 8 8 7 6
6 6 6 7 7 7 7 7 6 6 6 7 7 7 8 8 8 5 4 4 4 3 4 4 4 4 4 3 2 1 2 2 3 2 2 4 6 6 8 10 10 9 7
6 6 7 7 8 8 9 9 6 7 7 7 7 6 7 7 8 8 8 8 5 3 3 2 3 4 3 2 1 0 1 1 2 2 2 2 2 2 3 4 8 8 7
6 6 7 7 9 10 9 9 8 5 7 7 6 5 6 7 5 7 7 7 7 7 4 2 4 3 3 2 0 1 1 1 1 1 2 1 1 2 2 4 11 8 7
6 6 6 7 8 9 9 8 8 5 7 7 7 6 6 7 7 5 5 6 6 6 4 3 4 3 3 2 0 1 1 2 2 2 1 2 1 1 1 2 10 9 8
6 5 6 7 7 8 9 8 8 4 6 7 7 8 7 7 8 6 3 5 6 5 6 6 5 3 3 2 3 2 2 2 1 1 1 2 2 2 2 2 6 11 9
4 5 7 7 7 7 7 8 9 3 5 5 5 7 10 9 8 7 3 4 5 4 4 5 4 4 4 4 3 3 3 2 1 0 2 2 2 2 2 1 1 5 7
Wind_Direction
221 222 237 240 238 226 214 233 239 231 235 231 237 240 248 246 251 253 144 139 151 159 168 174 177 179 179 173 164 158 160 158 153 147 137 132 130 130 129 126 125 124 120
225 236 234 237 247 248 246 244 237 235 237 240 239 237 243 241 233 242 230 149 146 149 153 156 160 167 165 160 154 151 144 141 140 138 136 132 127 125 125 124 120 116 111
238 250 250 244 250 246 238 243 239 237 231 232 235 231 227 237 231 228 236 212 166 151 152 150 150 154 151 151 148 145 141 137 136 138 134 129 126 125 122 118 114 110 106
252 251 254 256 264 253 237 231 231 235 234 236 238 235 221 219 222 225 229 215 191 164 146 143 144 145 143 146 148 143 140 136 134 131 132 129 128 126 121 117 114 108 102
291 267 267 277 260 248 243 242 228 230 228 229 235 232 233 225 218 210 211 211 179 160 143 128 135 134 135 137 141 142 140 136 135 131 129 130 127 123 118 116 113 108 102
313 291 269 280 270 254 252 247 233 226 224 209 227 230 237 247 249 215 211 184 158 149 137 127 132 124 120 121 127 136 138 136 135 135 129 123 120 120 119 117 112 106 102
328 305 299 285 274 254 250 242 225 215 208 177 195 206 158 116 80 57 201 151 134 127 121 128 125 124 125 115 111 120 130 130 131 132 130 126 124 124 127 124 119 114 108
342 312 304 294 287 269 248 237 217 220 203 189 208 210 204 175 131 95 131 136 134 135 128 123 110 108 115 118 104 113 121 125 127 127 126 127 128 129 125 124 121 119 115
360 348 327 310 295 288 292 254 232 218 217 214 229 230 216 198 155 141 154 146 138 135 127 115 115 114 114 111 120 112 114 118 124 129 130 124 122 125 127 120 120 127 124
9 356 347 330 311 320 304 275 253 250 225 213 219 244 269 211 183 162 162 157 137 129 130 127 122 108 104 104 102 103 103 105 114 121 126 129 126 122 120 116 111 110 110
23 9 356 345 338 339 329 300 286 261 232 221 223 210 226 238 238 185 177 168 145 113 105 110 107 106 102 116 119 109 105 101 105 112 117 120 118 113 111 106 104 97 94
27 18 7 2 358 357 342 321 301 280 267 236 223 200 201 197 208 199 185 170 150 126 108 92 101 102 100 110 106 111 112 113 113 113 114 113 111 110 111 110 105 93 84
20 16 12 8 6 6 2 360 3 338 320 285 237 219 227 232 202 188 159 154 141 131 132 136 128 131 124 108 112 117 117 113 112 113 113 113 112 110 110 107 101 92 83
26 15 12 14 18 21 21 18 16 23 13 5 28 31 353 58 116 148 157 150 145 144 149 148 151 153 131 115 105 150 125 119 116 115 114 115 116 115 113 111 104 95 87
30 28 25 22 26 35 37 33 44 43 43 37 48 64 56 62 84 110 143 163 162 162 159 155 155 135 124 110 129 166 140 128 135 141 139 137 136 134 134 131 123 115 107
32 32 36 37 38 41 46 45 58 56 54 53 48 49 44 63 73 93 131 155 193 167 144 147 144 142 144 147 144 164 136 143 157 157 157 159 159 164 167 168 164 156 146
35 41 43 45 46 46 53 56 55 60 58 58 55 58 55 60 72 86 93 105 111 124 131 125 130 133 145 150 150 183 174 188 153 164 168 170 175 180 175 172 170 170 172
43 50 52 53 52 52 55 55 53 52 55 59 60 66 65 68 70 71 76 84 87 96 128 129 132 139 148 155 159 194 185 186 162 148 161 173 181 182 180 174 176 182 190
47 50 53 55 54 57 58 55 55 54 52 54 58 62 67 73 66 63 66 77 89 100 110 128 129 127 139 146 170 179 177 195 185 150 164 174 180 182 184 186 189 196 205
54 54 55 56 55 56 57 55 58 59 57 57 58 60 59 63 64 66 72 79 88 101 113 125 130 140 145 162 190 183 172 178 184 175 167 171 175 187 193 197 200 203 208
61 62 64 63 59 56 49 42 52 63 62 62 61 62 65 68 59 49 62 82 98 112 124 130 140 147 144 162 167 191 173 176 163 186 204 186 180 193 188 198 203 202 210
64 62 62 65 63 56 35 27 26 57 57 59 60 63 80 80 82 78 68 60 52 78 98 123 130 118 122 127 103 232 188 203 164 158 248 208 195 197 195 185 157 179 204
70 68 66 67 70 59 38 30 22 41 59 54 52 52 61 70 72 84 96 101 76 61 54 38 89 94 119 105 107 191 126 319 20 83 266 247 194 217 220 141 155 183 205
72 70 65 66 72 61 38 28 10 48 61 57 53 55 59 58 49 38 75 88 91 83 72 74 81 80 78 70 354 278 224 226 215 199 257 277 238 249 258 158 162 187 203
74 76 72 68 71 65 35 16 354 63 67 64 57 49 50 61 35 4 64 93 97 101 98 79 62 58 45 3 319 280 256 257 228 156 183 285 297 295 275 222 164 184 200
73 77 77 69 69 66 41 15 349 55 69 72 75 76 62 44 22 1 42 80 91 92 104 129 145 174 183 172 214 273 303 304 299 96 104 286 293 287 280 253 213 184 201